Simultaneous Nadir Overpasses (SNOs) Predictions

Prediction of SNOs between FY3D and AQUA Satellite Orbit:

Table of predicted SNOs for the next 14.0 days since TLE Epoch: 9/4/2021
Index Date (FY3D) Time (FY3D) Lat,Lon (FY3D) SZA (FY3D ) Date (AQUA) Time (AQUA) Lat,Lon (AQUA) SZA (AQUA ) Distance(km) Time Diff (sec)
1 09/06/2021 14:56:43 65.19, -38.56 59.02 09/06/2021 14:57:16 65.19, -38.53 59.02 1.30 33
2 09/06/2021 15:45:34 -58.98, 133.85 126.72 09/06/2021 15:44:53 -58.98, 133.84 126.75 0.45 41
3 09/09/2021 07:13:15 66.01, 76.54 60.82 09/09/2021 07:13:59 66.01, 76.56 60.82 0.89 44
4 09/09/2021 08:02:13 -60.21,-111.07 124.57 09/09/2021 08:01:43 -60.22,-111.08 124.59 1.14 30
5 09/11/2021 23:29:46 66.73,-168.30 62.53 09/11/2021 23:30:41 66.73,-168.30 62.54 0.22 55
6 09/12/2021 00:18:50 -61.28, 4.09 122.56 09/12/2021 00:18:31 -61.29, 4.05 122.57 2.02 19
7 09/14/2021 15:46:15 67.33, -53.06 64.14 09/14/2021 15:47:21 67.34, -53.07 64.15 0.74 66
8 09/14/2021 16:35:46 -63.40, 118.29 119.56 09/14/2021 16:35:37 -63.39, 118.32 119.57 1.52 9
9 09/17/2021 08:04:52 74.55, 50.11 72.47 09/17/2021 08:06:05 74.64, 50.84 72.53 24.13 73
10 09/17/2021 08:52:17 -64.13,-126.42 117.84 09/17/2021 08:52:19 -64.13,-126.42 117.84 0.22 2



Historial Predications of SNOs between FY3D and AQUA
